DW7229 Weather Reports


Display with metric or nautical units.
time (UTC)temp
F
wind
direction
speed
MPH
gust
MPH
rain 1hr
in
rain 24hr
in
rain mn
in
humidity
%
barometer
mb
20260904060018 65 0.0 0.0 0.00 0.00 0.00 95 1010.4
20260904055016 65 0.0 0.0 0.00 0.00 0.00 95 1010.6
20260904054019 65 0.0 0.0 0.00 0.00 0.00 95 1010.6
20260904053022 65 0.0 0.0 0.00 0.00 0.00 95 1010.7
20260904052026 65 0.0 0.0 0.00 0.00 0.00 95 1010.8
20260904051029 65 0.0 0.0 0.00 0.00 0.00 95 1010.9
20260904050032 65 0.0 0.0 0.00 0.00 0.00 95 1010.7
20260904045017 65 0.0 0.0 0.00 0.00 0.00 94 1010.8
20260904044041 65 0.0 0.0 0.00 0.00 0.00 94 1011.0
20260904043024 65 0.0 0.0 0.00 0.00 0.00 94 1011.1
20260904042027 65 0.0 0.0 0.00 0.00 0.00 93 1011.1
20260904041031 65 0.0 0.0 0.00 0.00 0.00 93 1011.2
20260904040016 65 0.0 0.0 0.00 0.00 0.00 93 1011.5
20260904035040 65 0.0 0.0 0.00 0.00 0.00 93 1011.4
20260904034022 65 0.0 0.0 0.00 0.00 0.00 93 1011.4
20260904033046 65 0.0 0.0 0.00 0.00 0.00 92 1011.5
20260904032029 65 0.0 0.0 0.00 0.00 0.00 92 1011.6
20260904031032 65 0.0 0.0 0.00 0.00 0.00 92 1011.8
20260904030058 65 0.0 0.0 0.00 0.00 0.00 92 1011.6
20260904025041 65 0.0 0.0 0.00 0.00 0.00 92 1011.9
20260904024024 65 0.0 0.0 0.00 0.00 0.00 91 1011.7
20260904023021 65 0.0 0.0 0.00 0.00 0.00 91 1011.7
20260904022018 65 0.0 0.0 0.00 0.00 0.00 91 1011.7
20260904021016 65 0.0 0.0 0.00 0.00 0.00 91 1011.7
20260904020020 65 0.0 0.0 0.00 0.00 0.00 90 1011.7
20260904015023 66 0.0 0.0 0.00 0.00 0.00 90 1012.0
20260904014026 66 0.0 0.0 0.00 0.00 0.00 90 1011.9
20260904013049 66 0.0 0.0 0.00 0.00 0.00 90 1012.0
20260904012032 66 0.0 0.0 0.00 0.00 0.00 90 1012.0
20260904011038 66 0.0 0.0 0.00 0.00 0.00 89 1011.9
20260904010021 67 0.0 0.0 0.00 0.00 0.00 89 1011.6
20260904005024 67 0.0 0.0 0.00 0.00 0.00 88 1011.5
20260904004028 67 0.0 0.0 0.00 0.00 0.00 86 1011.5
20260904003051 67 0.0 0.0 0.00 0.00 0.00 86 1011.4
20260904002016 67 0.0 0.0 0.00 0.00 0.00 85 1011.2
20260904001019 68 0.0 0.0 0.00 0.00 0.00 84 1011.0
20260904000023 68 0.0 0.0 0.00 0.00 0.00 83 1011.2
20260903235026 69 0.0 0.0 0.00 0.00 0.00 82 1010.9
20260903234029 69 0.0 0.0 0.00 0.00 0.00 82 1010.9
20260903233015 70 0.0 0.0 0.00 0.00 0.00 81 1011.1
20260903232018 70 0.0 0.0 0.00 0.00 0.00 80 1011.3
20260903231021 71 0.0 0.0 0.00 0.00 0.00 80 1011.2
20260903230025 72 0.0 0.0 0.00 0.00 0.00 80 1010.9
20260903225022 73 0.0 0.0 0.00 0.00 0.00 78 1011.1
20260903224039 73 0.0 0.0 0.00 0.00 0.00 78 1011.4
20260903223016 74 0.0 0.0 0.00 0.00 0.00 77 1011.5
20260903222020 75 0.0 0.0 0.00 0.00 0.00 74 1011.6
20260903221023 75 0.0 0.0 0.00 0.00 0.00 74 1011.5
20260903220046 76 0.0 0.0 0.00 0.00 0.00 73 1011.4
20260903215030 76 0.0 0.0 0.00 0.00 0.00 73 1011.5
20260903214014 77 0.0 0.0 0.00 0.00 0.00 71 1011.4
20260903213018 78 0.0 0.0 0.00 0.00 0.00 70 1011.4
20260903212021 75 0.0 0.0 0.00 0.00 0.00 75 1011.5
20260903211025 74 0.0 0.0 0.00 0.00 0.00 76 1011.6
20260903210048 75 0.0 0.0 0.00 0.00 0.00 73 1011.4
20260903205031 76 0.0 0.0 0.00 0.00 0.00 72 1011.5
20260903204016 79 0.0 0.0 0.00 0.00 0.00 68 1011.5
20260903203040 80 0.0 0.0 0.00 0.00 0.00 66 1011.5
20260903202043 80 0.0 0.0 0.00 0.00 0.00 66 1011.6
20260903201026 80 248 0.0 2.0 0.00 0.00 0.00 65 1011.6
20260903200030 79 0.0 0.0 0.00 0.00 0.00 68 1011.9
20260903195015 77 0.0 0.0 0.00 0.00 0.00 70 1012.1
20260903194019 75 0.0 0.0 0.00 0.00 0.00 74 1012.1
20260903193022 74 0.0 0.0 0.00 0.00 0.00 75 1012.1
20260903192025 74 0.0 0.0 0.00 0.00 0.00 75 1012.0
20260903191022 73 0.0 0.0 0.00 0.00 0.00 74 1012.3
20260903190020 73 248 0.0 1.0 0.00 0.00 0.00 75 1012.6
20260903185017 72 0.0 0.0 0.00 0.00 0.00 78 1012.5
20260903184020 72 0.0 0.0 0.00 0.00 0.00 77 1012.6
20260903183023 71 0.0 0.0 0.00 0.00 0.00 78 1012.7
20260903182047 69 0.0 0.0 0.00 0.00 0.00 81 1012.7
20260903181030 70 0.0 0.0 0.00 0.00 0.00 81 1013.1
20260903180015 70 0.0 0.0 0.00 0.00 0.00 81 1013.2
20260903175018 70 0.0 0.0 0.00 0.00 0.00 81 1013.2
20260903174022 71 0.0 0.0 0.00 0.00 0.00 80 1013.1
20260903173025 70 0.0 0.0 0.00 0.00 0.00 80 1013.0
20260903172028 70 0.0 0.0 0.00 0.00 0.00 81 1012.9
20260903171032 70 0.0 0.0 0.00 0.00 0.00 81 1012.9
20260903170017 69 0.0 0.0 0.00 0.00 0.00 82 1012.9
20260903165020 68 0.0 0.0 0.00 0.00 0.00 83 1013.1
20260903164023 69 0.0 0.0 0.00 0.00 0.00 82 1013.1
20260903163027 69 0.0 0.0 0.00 0.00 0.00 83 1013.1
20260903162030 68 0.0 0.0 0.00 0.00 0.00 83 1013.1
20260903161015 68 0.0 0.0 0.00 0.00 0.00 83 1013.1
20260903160018 69 0.0 0.0 0.00 0.00 0.00 82 1013.3
20260903155022 69 0.0 0.0 0.00 0.00 0.00 82 1013.6
20260903154025 69 0.0 0.0 0.00 0.00 0.00 85 1013.7
20260903153022 68 0.0 0.0 0.00 0.00 0.00 86 1013.7
20260903152019 68 0.0 0.0 0.00 0.00 0.00 88 1013.8
20260903151017 68 0.0 0.0 0.00 0.00 0.00 88 1013.8
20260903150020 67 0.0 0.0 0.00 0.00 0.00 90 1014.0
20260903145023 66 0.0 0.0 0.00 0.00 0.00 90 1014.0
20260903144026 66 0.0 0.0 0.00 0.00 0.00 92 1013.9
20260903143030 66 0.0 0.0 0.00 0.00 0.00 92 1014.2
20260903142015 65 0.0 0.0 0.00 0.00 0.00 92 1014.4
20260903141018 65 0.0 0.0 0.00 0.00 0.00 94 1014.4
20260903140022 65 0.0 0.0 0.00 0.00 0.00 95 1014.3
20260903135025 65 0.0 0.0 0.00 0.00 0.00 95 1014.3
20260903134028 65 0.0 0.0 0.00 0.00 0.00 95 1014.2
20260903133032 64 0.0 0.0 0.00 0.00 0.00 95 1014.2
20260903132017 64 0.0 0.0 0.00 0.00 0.00 95 1014.4
20260903131020 64 0.0 0.0 0.00 0.00 0.00 95 1014.3
20260903130024 64 0.0 0.0 0.00 0.00 0.00 95 1014.4
20260903125027 64 0.0 0.0 0.00 0.00 0.00 95 1014.7
20260903124030 64 0.0 0.0 0.00 0.00 0.00 95 1014.8
20260903123015 63 0.0 0.0 0.00 0.00 0.00 95 1014.9
20260903122119 63 0.0 0.0 0.00 0.00 0.00 95 1014.9
20260903121022 63 0.0 0.0 0.00 0.00 0.00 95 1015.2
20260903120025 62 0.0 0.0 0.00 0.00 0.00 95 1015.2
20260903115023 62 0.0 0.0 0.00 0.00 0.00 95 1015.3
20260903114020 62 0.0 0.0 0.00 0.00 0.00 94 1015.2
20260903113017 62 0.0 0.0 0.00 0.00 0.00 93 1015.2
20260903112020 62 0.0 0.0 0.00 0.00 0.00 93 1015.2
20260903111023 62 0.0 0.0 0.00 0.00 0.00 92 1015.4
20260903110047 62 0.0 0.0 0.00 0.00 0.00 92 1015.5
20260903105110 62 0.0 0.0 0.00 0.00 0.00 91 1015.3
20260903104015 62 0.0 0.0 0.00 0.00 0.00 90 1015.1
20260903103059 62 0.0 0.0 0.00 0.00 0.00 90 1015.1
20260903102022 62 0.0 0.0 0.00 0.00 0.00 90 1015.1
20260903101026 62 0.0 0.0 0.00 0.00 0.00 88 1015.2
20260903100049 62 0.0 0.0 0.00 0.00 0.00 87 1015.4
20260903095032 62 0.0 0.0 0.00 0.00 0.00 87 1015.3
20260903094017 62 0.0 0.0 0.00 0.00 0.00 87 1015.6
20260903093021 62 0.0 0.0 0.00 0.00 0.00 86 1015.7
20260903092024 62 0.0 0.0 0.00 0.00 0.00 86 1015.8
20260903091028 62 0.0 0.0 0.00 0.00 0.00 86 1015.9
20260903090030 62 0.0 0.0 0.00 0.00 0.00 85 1015.7
20260903085016 63 0.0 0.0 0.00 0.00 0.00 84 1015.7
20260903084039 63 0.0 0.0 0.00 0.00 0.00 83 1015.9
20260903083023 63 0.0 0.0 0.00 0.00 0.00 82 1015.8
20260903082026 63 0.0 0.0 0.00 0.00 0.00 82 1015.5
20260903081023 63 0.0 0.0 0.00 0.00 0.00 82 1015.5
20260903080020 63 0.0 0.0 0.00 0.00 0.00 83 1015.9
20260903075018 63 0.0 0.0 0.00 0.00 0.00 83 1015.8
20260903074015 63 0.0 0.0 0.00 0.00 0.00 84 1015.9
20260903073025 63 0.0 0.0 0.00 0.00 0.00 85 1015.9
20260903072028 63 0.0 0.0 0.00 0.00 0.00 85 1015.9
20260903071051 63 0.0 0.0 0.00 0.00 0.00 86 1016.2
20260903070016 63 0.0 0.0 0.00 0.00 0.00 86 1016.5
20260903065040 63 0.0 0.0 0.00 0.00 0.00 86 1016.8
20260903064023 63 0.0 0.0 0.00 0.00 0.00 86 1017.3
20260903063026 63 0.0 0.0 0.00 0.00 0.00 86 1017.5
20260903062030 63 0.0 0.0 0.00 0.00 0.00 86 1017.7
20260903061015 63 0.0 0.0 0.00 0.00 0.00 86 1018.1